Regional Weather Roundup
Issued by NWS Memphis, TN

Home | Current Version | Previous Version | Text Only | Print | Product List | Glossary On
Versions: 1 2 3 4 5 6 7 8 9 10 11 12 13 14 15 16 17 18 19 20 21 22 23 24 25 26 27 28 29 30 31 32 33 34 35 36 37 38 39 40 41 42 43 44 45 46 47 48 49 50
000
ASUS44 KMEG 050610
RWRMEG
MEMPHIS CWA HOURLY WEATHER ROUNDUP
NATIONAL WEATHER SERVICE MEMPHIS TN
100 AM CDT TUE MAY 05 2015

...WEST TENNESSEE...

CITY           SKY/WX    TMP DP  RH WIND       PRES   REMARKS
MEMPHIS INTL   PTCLDY    69  56  62 S6        30.19R
6HR MIN TEMP:  68; 6HR MAX TEMP:  80;

NWS MEMPHIS      N/A     68 N/A N/A MISG        N/A
JACKSON        CLEAR     59  53  80 S3        30.21R
6HR MIN TEMP:  58; 6HR MAX TEMP:  79;

LEXINGTON      CLEAR     55  54  94 CALM      30.22R
DYERSBURG      CLEAR     66  45  45 SE3       30.21R
6HR MIN TEMP:  64; 6HR MAX TEMP:  81;

PARIS          CLEAR     61  48  63 S3        30.22R


...EASTERN ARKANSAS...

CITY           SKY/WX    TMP DP  RH WIND       PRES   REMARKS
JONESBORO      CLEAR     58  53  84 CALM      30.17R
6HR MIN TEMP:  57; 6HR MAX TEMP:  79;

WEST MEMPHIS   CLOUDY    66  60  81 S6        30.17R
6HR MIN TEMP:  64; 6HR MAX TEMP:  78;

BATESVILLE     CLEAR     61  54  77 CALM      30.17R
6HR MIN TEMP:  61; 6HR MAX TEMP:  79;

NEWPORT        CLEAR     65  53  65 E7        30.18R
6HR MIN TEMP:  65; 6HR MAX TEMP:  81;

WALNUT RIDGE   CLEAR     63  48  59 S6        30.17R
6HR MIN TEMP:  63; 6HR MAX TEMP:  79;

BLYTHEVILLE    CLEAR     68  54  60 S7        30.18R
6HR MIN TEMP:  66; 6HR MAX TEMP:  80;

SEARCY         CLEAR     60  56  86 CALM      30.17R
6HR MIN TEMP:  60; 6HR MAX TEMP:  79;

STUTTGART      PTCLDY    68  55  64 SE5       30.16R
6HR MIN TEMP:  68; 6HR MAX TEMP:  81;

PINE BLUFF     MOCLDY    65  59  81 CALM      30.15R
6HR MIN TEMP:  65; 6HR MAX TEMP:  79;

MONTICELLO     PTCLDY    68  60  75 CALM      30.15R
6HR MIN TEMP:  68; 6HR MAX TEMP:  81;



...NORTH MISSISSIPPI...

CITY           SKY/WX    TMP DP  RH WIND       PRES   REMARKS
TUPELO         CLEAR     63  54  72 CALM      30.21R
6HR MIN TEMP:  63; 6HR MAX TEMP:  79;

OXFORD         LGT RAIN  63  54  72 SE6       30.21S
OLIVE BRANCH   CLEAR     64  57  77 S5        30.20R
TUNICA         PTCLDY    68  57  68 SE5       30.18S
CLARKSDALE     CLEAR     68  59  73 SE6       30.18R
CORINTH        CLEAR     59  55  88 CALM      30.21R
GREENWOOD      PTCLDY    70  54  56 S8        30.18R
6HR MIN TEMP:  67; 6HR MAX TEMP:  79;

COLUMBUS       CLEAR     60  55  81 S5        30.20S
6HR MIN TEMP:  60; 6HR MAX TEMP:  80;

STARKVILLE     FAIR      59  54  82 CALM      30.20S
GOLDEN TRIANGL   N/A     64  54  68 SE6       30.20S
6HR MIN TEMP:  64; 6HR MAX TEMP:  79;



...SOUTHEAST MISSOURI...

CITY           SKY/WX    TMP DP  RH WIND       PRES   REMARKS
WEST PLAINS    CLEAR     67  53  61 S6        30.19R
6HR MIN TEMP:  67; 6HR MAX TEMP:  78;

POPLAR BLUFF   CLEAR     60  53  77 CALM      30.17R
6HR MIN TEMP:  60; 6HR MAX TEMP:  80;

CAPE GIRARDEAU CLEAR     59  53  80 S8        30.18R
6HR MIN TEMP:  59; 6HR MAX TEMP:  80;



...NORTHWEST ALABAMA...

CITY           SKY/WX    TMP DP  RH WIND       PRES   REMARKS
MUSCLE SHOALS  CLEAR     60  54  80 SE3       30.24S
6HR MIN TEMP:  60; 6HR MAX TEMP:  78;



...MIDDLE TENNESSEE...

CITY           SKY/WX    TMP DP  RH WIND       PRES   REMARKS
NASHVILLE      CLEAR     62  54  74 S5        30.24R
6HR MIN TEMP:  61; 6HR MAX TEMP:  77;

CLARKSVILLE    CLEAR     60  54  80 CALM      30.22R
6HR MIN TEMP:  60; 6HR MAX TEMP:  77;

COLUMBIA       CLEAR     57  54  88 CALM      30.23R


...WESTERN KENTUCKY...

CITY           SKY/WX    TMP DP  RH WIND       PRES   REMARKS
PADUCAH        CLEAR     66  51  58 S3        30.19R
6HR MIN TEMP:  66; 6HR MAX TEMP:  80;

FORT CAMPBELL  CLEAR     65  53  65 S1        30.21S
6HR MIN TEMP:  65; 6HR MAX TEMP:  79; 6HR PCP: TRACE;



...CENTRAL ARKANSAS...

CITY           SKY/WX    TMP DP  RH WIND       PRES   REMARKS
LITTLE ROCK    PTCLDY    66  55  67 CALM      30.15R
6HR MIN TEMP:  66; 6HR MAX TEMP:  79;



SKY/WX REPORTED AS FAIR MEANS FEW OR NO CLOUDS BELOW
12 THOUSAND FEET.



USA.gov is the U.S. government's official web portal to all federal, state and local government web resources and services.